Dubai, UAE

2:03 PM +04 on February 22, 2018 (GMT +0400)
Dubai

Weather History for 41194 - October, 2013

Change the Weather History Date:

Sunday, October 27, 2013

  Actual Average Record
Temperature  
Mean Temperature 87 °F -  
Max Temperature 95 °F 85 °F - ()
Min Temperature 79 °F 69 °F - ()
Cooling Degree Days 22    
Growing Degree Days 37 (Base 50)    
Moisture  
Dew Point 68 °F    
Average Humidity 52    
Maximum Humidity 70    
Minimum Humidity 32    
Precipitation  
Precipitation 0.00 in 0.00 in - ()
Sea Level Pressure  
Sea Level Pressure 29.90 in    
Wind  
Wind Speed 6 mph ()    
Max Wind Speed 17 mph    
Max Gust Speed -    
Visibility 5.8 miles    
Events      
T = Trace of Precipitation, MM = Missing Value Source: Averaged Metar Reports

Daily Weather History Graph

Daily Weather History Graph

Search for Another Location

Airport or City:

Trip Planner

Search our weather history database for the weather conditions in past years. The results will help you decide how hot, cold, wet, or windy it might be!

Date:

Astronomy

Oct. 27, 2013 Rise Set
Actual Time 6:23 AM +04 5:41 PM +04
Civil Twilight 5:59 AM +04 6:04 PM +04
Nautical Twilight 5:32 AM +04 6:31 PM +04
Astronomical Twilight 5:06 AM +04 6:58 PM +04
Moon No Moon Rise 12:57 PM +04 (10/27)
Length of Visible Light 12h 04m
Length of Day
11h 18m
Waning Gibbous, 47% of the Moon is Illuminated
Oct 27
Waning Gibbous
Nov 3
New
Nov 10
First Quarter
Nov 17
Full
Nov 25
Last Quarter

Hourly Weather History & Observations

Time (+04) Temp. Heat Index Dew Point Humidity Pressure Visibility Wind Dir Wind Speed Gust Speed Precip Events Conditions
12:00 AM 86.0 °F 90.4 °F 69.8 °F 58% 29.89 in - East 6.9 mph - N/A   Clear
1:00 AM 84 °F - 69 °F 52% 29.90 in 6 mi ENE 5.8 mph - -  
1:00 AM 84.2 °F 88.4 °F 69.8 °F 62% 29.89 in - ENE 5.8 mph - N/A   Clear
2:00 AM 84.2 °F 88.4 °F 69.8 °F 62% 29.89 in - NE 4.6 mph - N/A   Clear
3:00 AM 84.2 °F 88.4 °F 69.8 °F 62% 29.86 in - NNE 5.8 mph - N/A   Clear
4:00 AM 84 °F - 70 °F 54% 29.88 in 6 mi ENE 5.8 mph - -  
4:00 AM 84.2 °F 88.4 °F 69.8 °F 62% 29.86 in - ENE 5.8 mph - N/A   Clear
5:00 AM 80.6 °F 83.9 °F 69.8 °F 70% 29.86 in - East 6.9 mph - N/A   Clear
6:00 AM 80.6 °F 83.9 °F 69.8 °F 70% 29.89 in - SE 3.5 mph - N/A   Clear
7:00 AM 80 °F - 70 °F 63% 29.91 in 5 mi 2.3 mph - -   Haze
7:00 AM 80.6 °F 83.9 °F 69.8 °F 70% 29.89 in 5.0 mi Variable 2.3 mph - N/A   Unknown
8:00 AM 82.4 °F 87.2 °F 71.6 °F 70% 29.92 in 5.0 mi East 4.6 mph - N/A   Unknown
9:00 AM 86.0 °F 91.8 °F 71.6 °F 62% 29.95 in - SSE 4.6 mph - N/A   Clear
10:00 AM 90 °F - 69 °F 40% 29.97 in 6 mi SE 3.5 mph - -  
10:00 AM 89.6 °F 94.7 °F 69.8 °F 52% 29.95 in - SE 3.5 mph - N/A   Clear
11:00 AM 93.2 °F 94.1 °F 62.6 °F 36% 29.95 in - Variable 2.3 mph - N/A   Clear
12:00 PM 93.2 °F 98.8 °F 69.8 °F 46% 29.92 in 6.2 mi NNW 4.6 mph - N/A   Partly Cloudy
1:00 PM 93 °F - 66 °F 32% 29.91 in 6 mi NW 11.5 mph - -   Partly Cloudy
1:00 PM 93.2 °F 96.2 °F 66.2 °F 41% 29.89 in 6.2 mi NW 12.7 mph - N/A   Scattered Clouds
2:00 PM 93.2 °F 94.1 °F 62.6 °F 36% 29.89 in 6.2 mi NW 15.0 mph - N/A   Scattered Clouds
3:00 PM 91.4 °F 94.0 °F 66.2 °F 43% 29.86 in 6.2 mi NW 17.3 mph - N/A   Scattered Clouds
4:00 PM 92 °F - 65 °F 32% 29.88 in 6 mi NNW 16.1 mph - -   Scattered Clouds
4:00 PM 91.4 °F 94.0 °F 66.2 °F 43% 29.86 in - NNW 16.1 mph - N/A   Clear
5:00 PM 89.6 °F 92.2 °F 66.2 °F 46% 29.86 in - NNW 13.8 mph - N/A   Clear
6:00 PM 87.8 °F 93.8 °F 71.6 °F 58% 29.89 in - NNW 11.5 mph - N/A   Clear
7:00 PM 88 °F - 68 °F 42% 29.90 in 6 mi NNW 9.2 mph - -  
7:00 PM 87.8 °F 91.4 °F 68.0 °F 52% 29.89 in - NNW 9.2 mph - N/A   Clear
8:00 PM 87.8 °F 91.4 °F 68.0 °F 52% 29.92 in - NNW 8.1 mph - N/A   Clear
9:00 PM 87.8 °F 89.4 °F 64.4 °F 46% 29.92 in - North 5.8 mph - N/A   Clear
10:00 PM 87 °F - 65 °F 38% 29.93 in 6 mi ESE 5.8 mph - -  
10:00 PM 87.8 °F 89.4 °F 64.4 °F 46% 29.92 in - ESE 5.8 mph - N/A   Clear
11:00 PM 86.0 °F 89.4 °F 68.0 °F 55% 29.92 in - East 5.8 mph - N/A   Clear